KAL761 RKSS-RJOB

Flight info

Callsign KAL761
Flight time 1h 13m
Altitude 33000
Route SEL1W SEL G597 LANAT Y597 MIHOU Y39 YUBAR
Aircraft MD82/M-SDFGIRWY/S

Departure

Time 2026-04-26 07:41
Airport Gimpo International Airport (RKSS)

Arrival

Time 2026-04-26 08:54
Airport Okayama Momotaro Airport (RJOB)
Time Latitude Longitude Altitude Speed Heading
2026-04-26 07:08 37.55656 126.80454 50 ft 0 kts 46°
2026-04-26 07:28 37.55652 126.80448 50 ft 2 kts 46°
2026-04-26 07:28 37.55641 126.80433 48 ft 2 kts 46°
2026-04-26 07:28 37.55630 126.80418 45 ft 2 kts 46°
2026-04-26 07:29 37.55618 126.80403 46 ft 2 kts 46°
2026-04-26 07:29 37.55611 126.80393 47 ft 2 kts 46°
2026-04-26 07:29 37.55600 126.80379 47 ft 2 kts 46°
2026-04-26 07:29 37.55588 126.80364 49 ft 2 kts 32°
2026-04-26 07:30 37.55573 126.80357 48 ft 2 kts
2026-04-26 07:30 37.55557 126.80358 49 ft 2 kts 346°
2026-04-26 07:30 37.55542 126.80365 49 ft 2 kts 335°
2026-04-26 07:30 37.55527 126.80375 46 ft 2 kts 323°
2026-04-26 07:31 37.55526 126.80376 47 ft 0 kts 321°
2026-04-26 07:33 37.55528 126.80374 46 ft 3 kts 321°
2026-04-26 07:33 37.55557 126.80341 49 ft 6 kts 308°
2026-04-26 07:33 37.55558 126.80291 47 ft 6 kts 242°
2026-04-26 07:34 37.55529 126.80250 50 ft 7 kts 225°
2026-04-26 07:34 37.55494 126.80206 49 ft 7 kts 224°
2026-04-26 07:34 37.55448 126.80182 50 ft 7 kts 171°
2026-04-26 07:34 37.55408 126.80216 49 ft 7 kts 140°
2026-04-26 07:35 37.55369 126.80263 47 ft 8 kts 135°
2026-04-26 07:35 37.55328 126.80314 49 ft 9 kts 135°
2026-04-26 07:35 37.55284 126.80369 49 ft 9 kts 135°
2026-04-26 07:35 37.55238 126.80428 49 ft 10 kts 135°
2026-04-26 07:36 37.55186 126.80488 51 ft 10 kts 148°
2026-04-26 07:36 37.55122 126.80482 50 ft 10 kts 216°
2026-04-26 07:36 37.55075 126.80425 51 ft 9 kts 225°
2026-04-26 07:36 37.55033 126.80372 52 ft 8 kts 225°
2026-04-26 07:37 37.54993 126.80322 53 ft 9 kts 225°
2026-04-26 07:37 37.54946 126.80263 52 ft 10 kts 224°
2026-04-26 07:37 37.54918 126.80228 50 ft 5 kts 225°
2026-04-26 07:37 37.54893 126.80197 48 ft 5 kts 225°
2026-04-26 07:38 37.54859 126.80152 52 ft 8 kts 229°
2026-04-26 07:38 37.54833 126.80091 50 ft 8 kts 260°
2026-04-26 07:38 37.54843 126.80046 49 ft 0 kts 308°
2026-04-26 07:39 37.54845 126.80042 48 ft 1 kts 310°
2026-04-26 07:40 37.54854 126.80030 52 ft 4 kts 312°
2026-04-26 07:40 37.54919 126.79949 49 ft 24 kts 315°
2026-04-26 07:40 37.55136 126.79678 47 ft 80 kts 315°
2026-04-26 07:40 37.55743 126.78914 49 ft 164 kts 313°
2026-04-26 07:41 37.56636 126.77763 809 ft 182 kts 311°
2026-04-26 07:41 37.57571 126.76592 2066 ft 197 kts 313°
2026-04-26 07:41 37.58523 126.75437 3164 ft 182 kts 314°
2026-04-26 07:41 37.59457 126.74324 3826 ft 191 kts 315°
2026-04-26 07:42 37.60474 126.73190 4504 ft 194 kts 316°
2026-04-26 07:42 37.61478 126.72029 5194 ft 198 kts 314°
2026-04-26 07:42 37.62474 126.70836 5884 ft 196 kts 313°
2026-04-26 07:42 37.63463 126.69613 6438 ft 205 kts 312°
2026-04-26 07:43 37.64427 126.68232 6943 ft 208 kts 295°
2026-04-26 07:43 37.64740 126.66527 7624 ft 203 kts 263°
2026-04-26 07:43 37.64245 126.64816 8048 ft 216 kts 232°
2026-04-26 07:43 37.63132 126.63538 8684 ft 221 kts 211°
2026-04-26 07:44 37.61668 126.62833 9230 ft 232 kts 191°
2026-04-26 07:44 37.60016 126.62740 9666 ft 247 kts 179°
2026-04-26 07:44 37.58241 126.62896 10077 ft 260 kts 176°
2026-04-26 07:44 37.56440 126.63133 10543 ft 270 kts 176°
2026-04-26 07:45 37.54507 126.63357 10946 ft 282 kts 178°
2026-04-26 07:45 37.52537 126.63491 11334 ft 293 kts 180°
2026-04-26 07:45 37.50456 126.63556 11733 ft 303 kts 181°
2026-04-26 07:45 37.48362 126.63930 12316 ft 309 kts 161°
2026-04-26 07:46 37.46490 126.65350 12916 ft 315 kts 137°
2026-04-26 07:46 37.45136 126.67544 13069 ft 334 kts 116°
2026-04-26 07:46 37.44467 126.70378 13447 ft 343 kts 99°
2026-04-26 07:46 37.44143 126.73381 13849 ft 350 kts 95°
2026-04-26 07:47 37.43880 126.76464 14197 ft 359 kts 96°
2026-04-26 07:47 37.43572 126.79633 14515 ft 368 kts 97°
2026-04-26 07:47 37.43180 126.82820 14977 ft 372 kts 99°
2026-04-26 07:47 37.42706 126.86042 15422 ft 378 kts 101°
2026-04-26 07:48 37.42149 126.89314 15673 ft 388 kts 103°
2026-04-26 07:48 37.41562 126.92644 16144 ft 393 kts 97°
2026-04-26 07:48 37.41583 126.96123 16313 ft 404 kts 78°
2026-04-26 07:48 37.42182 126.99558 17026 ft 396 kts 75°
2026-04-26 07:49 37.42841 127.02817 18380 ft 376 kts 74°
2026-04-26 07:49 37.43498 127.06050 18614 ft 387 kts 75°
2026-04-26 07:49 37.44138 127.09394 18693 ft 401 kts 76°
2026-04-26 07:50 37.45357 127.16434 19168 ft 419 kts 77°
2026-04-26 07:50 37.45938 127.20040 19675 ft 420 kts 78°
2026-04-26 07:50 37.46509 127.23637 20199 ft 420 kts 78°
2026-04-26 07:50 37.47080 127.27258 20674 ft 423 kts 78°
2026-04-26 07:51 37.47661 127.30910 21053 ft 427 kts 78°
2026-04-26 07:51 37.48249 127.34587 21438 ft 431 kts 77°
2026-04-26 07:51 37.48848 127.38300 21891 ft 433 kts 78°
2026-04-26 07:51 37.49451 127.42034 22310 ft 436 kts 77°
2026-04-26 07:52 37.50046 127.45793 22662 ft 441 kts 78°
2026-04-26 07:52 37.50645 127.49597 23060 ft 444 kts 78°
2026-04-26 07:52 37.51248 127.53413 23476 ft 446 kts 78°
2026-04-26 07:52 37.51859 127.57261 23785 ft 450 kts 78°
2026-04-26 07:53 37.52471 127.61126 24132 ft 452 kts 77°
2026-04-26 07:53 37.53082 127.64969 24475 ft 454 kts 77°
2026-04-26 07:53 37.53713 127.68925 24796 ft 457 kts 77°
2026-04-26 07:53 37.54327 127.72814 25118 ft 459 kts 78°
2026-04-26 07:54 37.54950 127.76783 25428 ft 463 kts 77°
2026-04-26 07:54 37.55572 127.80765 25754 ft 465 kts 77°
2026-04-26 07:54 37.56198 127.84780 26083 ft 468 kts 77°
2026-04-26 07:54 37.56827 127.88814 26434 ft 469 kts 77°
2026-04-26 07:55 37.57457 127.92851 26755 ft 472 kts 77°
2026-04-26 07:55 37.58094 127.96924 27062 ft 474 kts 77°
2026-04-26 07:55 37.58736 128.01009 27341 ft 478 kts 77°
2026-04-26 07:55 37.59382 128.05129 27691 ft 479 kts 77°
2026-04-26 07:56 37.60030 128.09263 28070 ft 481 kts 77°
2026-04-26 07:56 37.60677 128.13397 28405 ft 482 kts 77°
2026-04-26 07:56 37.61323 128.17556 28817 ft 483 kts 77°
2026-04-26 07:56 37.61957 128.21708 29320 ft 481 kts 77°
2026-04-26 07:57 37.62580 128.25827 29864 ft 478 kts 77°
2026-04-26 07:57 37.63202 128.29938 30284 ft 476 kts 77°
2026-04-26 07:57 37.63822 128.34021 30623 ft 474 kts 77°
2026-04-26 07:57 37.64445 128.38115 30906 ft 475 kts 77°
2026-04-26 07:58 37.65072 128.42219 31198 ft 476 kts 77°
2026-04-26 07:58 37.65699 128.46309 31523 ft 475 kts 77°
2026-04-26 07:58 37.66327 128.50404 31873 ft 474 kts 77°
2026-04-26 07:58 37.66952 128.54491 32205 ft 474 kts 77°
2026-04-26 07:59 37.67575 128.58568 32448 ft 475 kts 77°
2026-04-26 07:59 37.68195 128.62672 32677 ft 476 kts 78°
2026-04-26 07:59 37.68806 128.66786 32788 ft 479 kts 78°
2026-04-26 07:59 37.69388 128.70934 32833 ft 479 kts 83°
2026-04-26 08:00 37.69360 128.75123 32859 ft 476 kts 101°
2026-04-26 08:00 37.68421 128.79089 32874 ft 472 kts 117°
2026-04-26 08:00 37.65152 128.86201 32873 ft 468 kts 125°
2026-04-26 08:01 37.61636 128.93114 32874 ft 468 kts 125°
2026-04-26 08:01 37.58186 129.00065 32891 ft 467 kts 124°
2026-04-26 08:02 37.54825 129.07065 32877 ft 466 kts 123°
2026-04-26 08:02 37.51488 129.14065 32875 ft 465 kts 123°
2026-04-26 08:03 37.48170 129.20983 32879 ft 465 kts 123°
2026-04-26 08:03 37.44806 129.27940 32887 ft 466 kts 124°
2026-04-26 08:04 37.41423 129.34893 32883 ft 466 kts 124°
2026-04-26 08:04 37.38030 129.41835 32886 ft 465 kts 124°
2026-04-26 08:05 37.34661 129.48746 32887 ft 463 kts 124°
2026-04-26 08:05 37.31307 129.55634 32887 ft 462 kts 124°
2026-04-26 08:06 37.27956 129.62508 32890 ft 462 kts 124°
2026-04-26 08:06 37.24597 129.69389 32891 ft 462 kts 125°
2026-04-26 08:07 37.21262 129.76207 32892 ft 462 kts 125°
2026-04-26 08:07 37.17895 129.83054 32898 ft 461 kts 125°
2026-04-26 08:08 37.14519 129.89888 32896 ft 461 kts 126°
2026-04-26 08:08 37.11119 129.96732 32898 ft 459 kts 126°
2026-04-26 08:09 37.07777 130.03470 32900 ft 457 kts 126°
2026-04-26 08:09 37.04431 130.10225 32901 ft 457 kts 126°
2026-04-26 08:10 37.01082 130.16981 32902 ft 457 kts 126°
2026-04-26 08:10 36.97730 130.23733 32899 ft 457 kts 126°
2026-04-26 08:11 36.94369 130.30492 32905 ft 457 kts 127°
2026-04-26 08:11 36.90978 130.37197 32907 ft 457 kts 127°
2026-04-26 08:12 36.87591 130.43901 32910 ft 456 kts 127°
2026-04-26 08:12 36.84235 130.50606 32906 ft 455 kts 127°
2026-04-26 08:13 36.80894 130.57300 32915 ft 453 kts 127°
2026-04-26 08:13 36.77563 130.63957 32906 ft 452 kts 127°
2026-04-26 08:14 36.74224 130.70602 32913 ft 452 kts 128°
2026-04-26 08:14 36.70849 130.77217 32918 ft 452 kts 128°
2026-04-26 08:15 36.67471 130.83843 32928 ft 453 kts 128°
2026-04-26 08:15 36.64108 130.90467 32916 ft 453 kts 129°
2026-04-26 08:16 36.61313 130.95978 32922 ft 453 kts 129°
2026-04-26 08:16 36.57950 131.02599 32932 ft 453 kts 129°
2026-04-26 08:17 36.54584 131.09217 32933 ft 453 kts 129°
2026-04-26 08:17 36.51207 131.15820 32938 ft 452 kts 130°
2026-04-26 08:18 36.47799 131.22405 32938 ft 452 kts 130°
2026-04-26 08:18 36.44409 131.28994 32942 ft 453 kts 130°
2026-04-26 08:19 36.41036 131.35586 32946 ft 453 kts 130°
2026-04-26 08:19 36.37663 131.42178 32946 ft 452 kts 130°
2026-04-26 08:20 36.34323 131.48800 32954 ft 453 kts 130°
2026-04-26 08:20 36.31021 131.55473 32951 ft 453 kts 130°
2026-04-26 08:21 36.27750 131.62091 32953 ft 453 kts 130°
2026-04-26 08:21 36.24429 131.68783 32953 ft 453 kts 131°
2026-04-26 08:22 36.21126 131.75420 32960 ft 453 kts 131°
2026-04-26 08:22 36.17818 131.82057 32961 ft 451 kts 132°
2026-04-26 08:23 36.14551 131.88609 32961 ft 450 kts 132°
2026-04-26 08:23 36.11264 131.95168 32965 ft 448 kts 133°
2026-04-26 08:24 36.07971 132.01696 32968 ft 447 kts 134°
2026-04-26 08:24 36.04661 132.08220 32968 ft 448 kts 134°
2026-04-26 08:25 36.01360 132.14746 32967 ft 448 kts 134°
2026-04-26 08:25 35.98063 132.21271 32965 ft 448 kts 134°
2026-04-26 08:26 35.94768 132.27791 32965 ft 447 kts 135°
2026-04-26 08:26 35.91474 132.34295 32641 ft 449 kts 135°
2026-04-26 08:27 35.89810 132.37554 32232 ft 447 kts 134°
2026-04-26 08:27 35.88164 132.40786 31816 ft 442 kts 134°
2026-04-26 08:27 35.86538 132.43969 31416 ft 435 kts 133°
2026-04-26 08:27 35.84930 132.47099 31015 ft 431 kts 133°
2026-04-26 08:28 35.83332 132.50207 30622 ft 428 kts 132°
2026-04-26 08:28 35.81744 132.53301 30248 ft 425 kts 131°
2026-04-26 08:28 35.80172 132.56371 29824 ft 423 kts 131°
2026-04-26 08:28 35.78611 132.59440 29371 ft 421 kts 130°
2026-04-26 08:29 35.77063 132.62493 28925 ft 418 kts 130°
2026-04-26 08:29 35.75534 132.65512 28571 ft 414 kts 130°
2026-04-26 08:29 35.74010 132.68513 28217 ft 412 kts 130°
2026-04-26 08:29 35.72488 132.71493 27873 ft 410 kts 130°
2026-04-26 08:30 35.70975 132.74450 27524 ft 409 kts 130°
2026-04-26 08:30 35.69463 132.77406 27178 ft 407 kts 130°
2026-04-26 08:30 35.67959 132.80345 26846 ft 406 kts 130°
2026-04-26 08:30 35.66457 132.83284 26436 ft 406 kts 129°
2026-04-26 08:31 35.64957 132.86214 25971 ft 404 kts 129°
2026-04-26 08:31 35.63467 132.89126 25529 ft 400 kts 129°
2026-04-26 08:31 35.61992 132.92011 25087 ft 396 kts 128°
2026-04-26 08:31 35.60539 132.94855 24658 ft 392 kts 128°
2026-04-26 08:32 35.59091 132.97683 24234 ft 389 kts 127°
2026-04-26 08:32 35.57651 133.00490 23819 ft 387 kts 127°
2026-04-26 08:32 35.56222 133.03276 23386 ft 385 kts 127°
2026-04-26 08:32 35.54802 133.06051 22895 ft 382 kts 127°
2026-04-26 08:33 35.53378 133.08783 22399 ft 377 kts 132°
2026-04-26 08:33 35.51586 133.11052 21940 ft 366 kts 145°
2026-04-26 08:33 35.49606 133.12979 21465 ft 362 kts 147°
2026-04-26 08:33 35.47605 133.14837 21002 ft 359 kts 148°
2026-04-26 08:34 35.45617 133.16669 20547 ft 356 kts 147°
2026-04-26 08:34 35.43647 133.18484 20106 ft 353 kts 147°
2026-04-26 08:34 35.41697 133.20293 19664 ft 350 kts 147°
2026-04-26 08:34 35.39767 133.22106 19228 ft 348 kts 146°
2026-04-26 08:35 35.37864 133.23912 18813 ft 346 kts 146°
2026-04-26 08:35 35.35973 133.25720 18395 ft 343 kts 146°
2026-04-26 08:35 35.34101 133.27517 17901 ft 342 kts 146°
2026-04-26 08:35 35.32233 133.29312 17375 ft 340 kts 145°
2026-04-26 08:36 35.30379 133.31093 16854 ft 337 kts 145°
2026-04-26 08:36 35.28546 133.32854 16347 ft 334 kts 145°
2026-04-26 08:36 35.26722 133.34602 15853 ft 331 kts 145°
2026-04-26 08:36 35.24915 133.36333 15365 ft 328 kts 145°
2026-04-26 08:37 35.23132 133.38044 14887 ft 325 kts 144°
2026-04-26 08:37 35.21360 133.39739 14412 ft 322 kts 145°
2026-04-26 08:37 35.19600 133.41422 13940 ft 319 kts 144°
2026-04-26 08:37 35.17859 133.43077 13433 ft 315 kts 145°
2026-04-26 08:38 35.16132 133.44717 12918 ft 313 kts 145°
2026-04-26 08:38 35.14418 133.46341 12403 ft 311 kts 144°
2026-04-26 08:38 35.12737 133.47937 11906 ft 309 kts 144°
2026-04-26 08:38 35.11024 133.49563 11408 ft 307 kts 144°
2026-04-26 08:39 35.09368 133.51135 10925 ft 306 kts 144°
2026-04-26 08:39 35.07690 133.52725 10452 ft 304 kts 144°
2026-04-26 08:39 35.06019 133.54307 9966 ft 303 kts 144°
2026-04-26 08:39 35.04359 133.55884 9471 ft 301 kts 144°
2026-04-26 08:40 35.02733 133.57429 9222 ft 290 kts 144°
2026-04-26 08:40 35.01170 133.58897 9105 ft 279 kts 145°
2026-04-26 08:40 34.99650 133.60294 9054 ft 270 kts 146°
2026-04-26 08:40 34.98159 133.61646 9034 ft 265 kts 147°
2026-04-26 08:41 34.96514 133.62584 9026 ft 262 kts 174°
2026-04-26 08:41 34.94698 133.62625 9024 ft 262 kts 183°
2026-04-26 08:41 34.92876 133.62577 8997 ft 262 kts 180°
2026-04-26 08:41 34.91049 133.62665 9000 ft 263 kts 177°
2026-04-26 08:42 34.89218 133.62843 8996 ft 263 kts 175°
2026-04-26 08:42 34.87467 133.63469 8871 ft 270 kts 147°
2026-04-26 08:42 34.86050 133.65009 8525 ft 275 kts 136°
2026-04-26 08:42 34.84722 133.66675 8168 ft 273 kts 136°
2026-04-26 08:43 34.83410 133.68329 7738 ft 271 kts 135°
2026-04-26 08:43 34.82120 133.69978 7299 ft 267 kts 135°
2026-04-26 08:43 34.80877 133.71586 6873 ft 255 kts 135°
2026-04-26 08:43 34.79684 133.73128 6428 ft 245 kts 134°
2026-04-26 08:44 34.78777 133.74850 5965 ft 243 kts 111°
2026-04-26 08:44 34.78244 133.76781 5521 ft 239 kts 111°
2026-04-26 08:44 34.77891 133.78732 5070 ft 238 kts 94°
2026-04-26 08:44 34.77671 133.80702 4611 ft 233 kts 110°
2026-04-26 08:45 34.77104 133.82520 4278 ft 226 kts 114°
2026-04-26 08:45 34.76259 133.84058 4117 ft 218 kts 146°
2026-04-26 08:45 34.74804 133.84423 4073 ft 225 kts 192°
2026-04-26 08:45 34.73513 133.83347 4034 ft 236 kts 235°
2026-04-26 08:46 34.72981 133.81443 4045 ft 241 kts 256°
2026-04-26 08:46 34.72675 133.79445 4016 ft 240 kts 258°
2026-04-26 08:46 34.72397 133.77446 3998 ft 237 kts 259°
2026-04-26 08:46 34.72152 133.75493 3993 ft 232 kts 260°
2026-04-26 08:47 34.71929 133.73552 3980 ft 230 kts 261°
2026-04-26 08:47 34.71713 133.71624 3978 ft 232 kts 260°
2026-04-26 08:47 34.71498 133.69681 3820 ft 232 kts 261°
2026-04-26 08:47 34.71275 133.67711 3452 ft 236 kts 260°
2026-04-26 08:48 34.71057 133.65764 3081 ft 227 kts 261°
2026-04-26 08:48 34.70854 133.63931 2872 ft 210 kts 259°
2026-04-26 08:48 34.70273 133.62404 2817 ft 199 kts 216°
2026-04-26 08:48 34.69027 133.61980 2865 ft 187 kts 162°
2026-04-26 08:49 34.68046 133.62908 2929 ft 185 kts 114°
2026-04-26 08:49 34.67695 133.64413 3010 ft 192 kts 93°
2026-04-26 08:49 34.67697 133.66043 2956 ft 192 kts 89°
2026-04-26 08:49 34.67757 133.67651 2914 ft 190 kts 88°
2026-04-26 08:50 34.67908 133.69239 2896 ft 191 kts 73°
2026-04-26 08:50 34.68493 133.70687 2895 ft 191 kts 64°
2026-04-26 08:50 34.69114 133.72107 2892 ft 187 kts 64°
2026-04-26 08:50 34.69717 133.73393 2871 ft 161 kts 63°
2026-04-26 08:51 34.70808 133.75595 2384 ft 145 kts 63°
2026-04-26 08:51 34.71308 133.76636 2206 ft 141 kts 63°
2026-04-26 08:51 34.71811 133.77656 2077 ft 142 kts 62°
2026-04-26 08:52 34.72317 133.78686 1890 ft 142 kts 62°
2026-04-26 08:52 34.72824 133.79712 1705 ft 141 kts 61°
2026-04-26 08:52 34.73330 133.80734 1525 ft 141 kts 61°
2026-04-26 08:52 34.73825 133.81759 1353 ft 144 kts 61°
2026-04-26 08:53 34.74349 133.82829 1131 ft 148 kts 58°
2026-04-26 08:53 34.74888 133.83890 928 ft 148 kts 60°
2026-04-26 08:53 34.75403 133.84948 807 ft 129 kts 60°
2026-04-26 08:53 34.75747 133.85652 794 ft 63 kts 59°
2026-04-26 08:54 34.75895 133.85947 794 ft 19 kts 52°
2026-04-26 08:54 34.75987 133.85962 793 ft 9 kts 336°
2026-04-26 08:54 34.76016 133.85946 794 ft 0 kts 335°
2026-04-26 08:58 34.76026 133.85938 794 ft 5 kts 324°
2026-04-26 08:58 34.76043 133.85911 795 ft 5 kts 292°
2026-04-26 08:59 34.76037 133.85853 796 ft 8 kts 244°
2026-04-26 08:59 34.76009 133.85791 796 ft 9 kts 239°
2026-04-26 08:59 34.75975 133.85722 796 ft 10 kts 239°
2026-04-26 08:59 34.75937 133.85644 795 ft 11 kts 239°
2026-04-26 09:00 34.75916 133.85588 795 ft 4 kts 272°
2026-04-26 09:00 34.75932 133.85567 796 ft 5 kts 326°
2026-04-26 09:00 34.75967 133.85542 796 ft 6 kts 330°
2026-04-26 09:00 34.75999 133.85520 797 ft 5 kts 329°
2026-04-26 09:01 34.76011 133.85511 797 ft 1 kts 329°
2026-04-26 09:01 34.76012 133.85510 797 ft 0 kts 329°